Chandler, OK

2:00 PM CST on November 22, 2019 (GMT -0600)
Chandler Municipal

Weather History for KCQB - October, 2019

Change the Weather History Date:

Saturday, October 19, 2019

  Actual Average (KCUH) Record (KCUH)
Temperature  
Mean Temperature 61 °F -  
Max Temperature 72 °F 70 °F 89 °F (1963)
Min Temperature 50 °F 45 °F 29 °F (1989)
Degree Days  
Heating Degree Days 4    
Growing Degree Days 11 (Base 50)    
Moisture  
Dew Point 51 °F    
Average Humidity 72    
Maximum Humidity 96    
Minimum Humidity 48    
Precipitation  
Precipitation 0.01 in - - ()
Sea Level Pressure  
Sea Level Pressure 29.77 in    
Wind  
Wind Speed 6 mph ()    
Max Wind Speed 15 mph    
Max Gust Speed 24 mph    
Visibility 9.9 miles    
Events Rain    
Averages and records for this station are not official NWS values.
T = Trace of Precipitation, MM = Missing Value Source: Averaged Metar Reports

Daily Weather History Graph

Daily Weather History Graph

Search for Another Location

Airport or City:

Astronomy

Oct. 19, 2019 Rise Set
Actual Time 7:37 AM CDT 6:46 PM CDT
Civil Twilight 7:11 AM CDT 7:12 PM CDT
Nautical Twilight 6:41 AM CDT 7:42 PM CDT
Astronomical Twilight 6:11 AM CDT 8:11 PM CDT
Moon 11:05 PM CDT (10/19) 1:02 PM CDT (10/19)
Length of Visible Light 12h 01m
Length of Day
11h 09m
Waning Gibbous, 69% of the Moon is Illuminated
Oct 19
Waning Gibbous
Oct 21
Last Quarter
Oct 27
New
Nov 4
First Quarter
Nov 12
Full

Hourly Weather History & Observations

Time (CDT) Temp. Dew Point Humidity Pressure Visibility Wind Dir Wind Speed Gust Speed Precip Events Conditions
12:15 AM 59.7 °F 46.0 °F 61% 29.70 in 10.0 mi SSE 10.4 mph 16.1 mph N/A   Clear
12:35 AM 60.1 °F 46.4 °F 61% 29.73 in 10.0 mi SW 8.1 mph - N/A   Scattered Clouds
12:55 AM 59.9 °F 46.8 °F 62% 29.74 in 10.0 mi SW 5.8 mph - N/A   Scattered Clouds
1:15 AM 59.2 °F 47.1 °F 64% 29.75 in 10.0 mi Calm Calm - N/A   Scattered Clouds
1:35 AM 59.2 °F 47.5 °F 65% 29.75 in 10.0 mi Calm Calm - N/A   Scattered Clouds
1:55 AM 57.9 °F 49.5 °F 73% 29.76 in 10.0 mi SSW 12.7 mph 17.3 mph N/A Rain Light Rain
2:15 AM 56.8 °F 50.4 °F 79% 29.74 in 10.0 mi South 12.7 mph - N/A Rain Light Rain
2:55 AM 55.4 °F 51.8 °F 88% 29.72 in 10.0 mi SSE 8.1 mph - 0.01 in Rain Light Rain
3:15 AM 55.0 °F 51.4 °F 88% 29.69 in 10.0 mi SE 10.4 mph - N/A   Overcast
3:35 AM 54.7 °F 51.3 °F 88% 29.69 in 10.0 mi SE 9.2 mph - N/A   Scattered Clouds
3:55 AM 54.9 °F 51.3 °F 88% 29.69 in 10.0 mi SE 9.2 mph - N/A   Scattered Clouds
4:15 AM 54.7 °F 51.3 °F 88% 29.68 in 10.0 mi SE 6.9 mph - N/A   Clear
4:35 AM 54.9 °F 51.1 °F 87% 29.70 in 10.0 mi ESE 3.5 mph - N/A   Clear
4:55 AM 54.5 °F 51.1 °F 88% 29.70 in 10.0 mi ESE 5.8 mph - N/A   Clear
5:15 AM 54.7 °F 50.7 °F 86% 29.70 in 10.0 mi SE 6.9 mph - N/A   Clear
5:35 AM 54.0 °F 50.7 °F 89% 29.71 in 10.0 mi SE 5.8 mph - N/A   Clear
5:55 AM 53.8 °F 50.4 °F 88% 29.71 in 10.0 mi SE 4.6 mph - N/A   Clear
6:15 AM 52.5 °F 50.2 °F 92% 29.73 in 10.0 mi Calm Calm - N/A   Clear
6:35 AM 52.3 °F 50.4 °F 93% 29.74 in 10.0 mi NNE 3.5 mph - N/A   Clear
7:15 AM 51.4 °F 50.0 °F 95% 29.75 in 10.0 mi North 3.5 mph - N/A   Clear
7:35 AM 50.2 °F 49.1 °F 96% 29.76 in 10.0 mi North 4.6 mph - N/A   Clear
7:55 AM 50.9 °F 49.8 °F 96% 29.76 in 10.0 mi NNE 3.5 mph - N/A   Clear
8:15 AM 51.6 °F 50.4 °F 95% 29.77 in 10.0 mi NNE 3.5 mph - N/A   Clear
8:35 AM 53.6 °F 51.3 °F 92% 29.77 in 10.0 mi ENE 3.5 mph - N/A   Clear
8:55 AM 54.7 °F 51.6 °F 89% 29.78 in 10.0 mi Calm Calm - N/A   Clear
9:15 AM 56.7 °F 52.5 °F 86% 29.78 in 10.0 mi Calm Calm - N/A   Clear
9:35 AM 57.2 °F 52.5 °F 84% 29.78 in 10.0 mi Calm Calm - N/A   Clear
9:55 AM 59.2 °F 53.1 °F 80% 29.79 in 10.0 mi ESE 3.5 mph - N/A   Clear
10:15 AM 59.7 °F 52.2 °F 76% 29.80 in 10.0 mi Calm Calm - N/A   Clear
10:35 AM 60.8 °F 53.1 °F 76% 29.80 in 10.0 mi Calm Calm - N/A   Clear
10:55 AM 62.4 °F 53.1 °F 71% 29.80 in 10.0 mi NW 5.8 mph - N/A   Clear
11:15 AM 65.5 °F 53.2 °F 65% 29.80 in 10.0 mi NNW 6.9 mph - N/A   Clear
11:35 AM 65.7 °F 52.3 °F 62% 29.80 in 10.0 mi NW 10.4 mph - N/A   Clear
11:55 AM 66.9 °F 51.8 °F 58% 29.80 in 10.0 mi NW 11.5 mph - N/A   Clear
12:15 PM 67.3 °F 52.0 °F 58% 29.80 in 10.0 mi North 10.4 mph - N/A   Clear
12:35 PM 68.0 °F 52.2 °F 57% 29.80 in 10.0 mi North 12.7 mph 16.1 mph N/A   Clear
12:55 PM 69.1 °F 52.2 °F 55% 29.80 in 10.0 mi North 11.5 mph - N/A   Clear
1:35 PM 70.0 °F 52.2 °F 53% 29.79 in 10.0 mi NNW 12.7 mph - N/A   Clear
1:55 PM 70.5 °F 52.9 °F 54% 29.78 in 10.0 mi NNW 9.2 mph 24.2 mph N/A   Clear
2:15 PM 70.9 °F 52.2 °F 51% 29.78 in 10.0 mi NNW 15.0 mph - N/A   Clear
2:55 PM 71.6 °F 51.8 °F 50% 29.77 in 10.0 mi NNW 15.0 mph 23.0 mph N/A   Clear
3:15 PM 71.6 °F 52.3 °F 51% 29.77 in 10.0 mi NNW 15.0 mph - N/A   Clear
3:35 PM 71.6 °F 51.8 °F 50% 29.77 in 10.0 mi North 12.7 mph 18.4 mph N/A   Clear
3:55 PM 71.6 °F 51.8 °F 50% 29.77 in 10.0 mi North 8.1 mph - N/A   Clear
4:15 PM 72.9 °F 52.3 °F 48% 29.77 in 10.0 mi North 11.5 mph - N/A   Clear
4:35 PM 72.5 °F 52.0 °F 48% 29.78 in 10.0 mi North 6.9 mph - N/A   Clear
4:55 PM 72.5 °F 51.8 °F 48% 29.78 in 10.0 mi North 9.2 mph - N/A   Clear
5:35 PM 71.4 °F 52.0 °F 50% 29.78 in 10.0 mi North 8.1 mph - N/A   Clear
5:55 PM 70.9 °F 52.0 °F 51% 29.78 in 10.0 mi NNW 8.1 mph - N/A   Clear
6:15 PM 68.9 °F 51.8 °F 54% 29.79 in 10.0 mi NNW 5.8 mph - N/A   Clear
6:35 PM 65.5 °F 51.6 °F 61% 29.79 in 10.0 mi NNW 3.5 mph - N/A   Clear
6:55 PM 63.7 °F 51.4 °F 64% 29.80 in 10.0 mi NW 4.6 mph - N/A   Clear
7:15 PM 62.8 °F 51.3 °F 66% 29.80 in 10.0 mi Calm Calm - N/A   Clear
7:35 PM 60.4 °F 50.9 °F 71% 29.80 in 10.0 mi NW 4.6 mph - N/A   Clear
7:55 PM 61.0 °F 50.5 °F 68% 29.81 in 10.0 mi NW 4.6 mph - N/A   Clear
8:15 PM 59.4 °F 50.2 °F 72% 29.82 in 10.0 mi NNW 5.8 mph - N/A   Clear
8:35 PM 59.0 °F 50.2 °F 73% 29.82 in 10.0 mi NNW 4.6 mph - N/A   Clear
8:55 PM 57.6 °F 49.6 °F 75% 29.82 in 10.0 mi NNW 4.6 mph - N/A   Clear
9:15 PM 57.4 °F 49.6 °F 75% 29.83 in 10.0 mi NNW 4.6 mph - N/A   Clear
9:35 PM 56.7 °F 49.8 °F 78% 29.83 in 7.0 mi North 4.6 mph - N/A   Haze
9:55 PM 57.6 °F 49.6 °F 75% 29.83 in 10.0 mi North 3.5 mph - N/A   Clear
10:15 PM 55.6 °F 49.3 °F 79% 29.83 in 10.0 mi North 4.6 mph - N/A   Clear
10:35 PM 55.4 °F 49.5 °F 80% 29.84 in 10.0 mi North 4.6 mph - N/A   Clear
10:55 PM 55.6 °F 49.6 °F 80% 29.85 in 10.0 mi North 3.5 mph - N/A   Clear
11:15 PM 55.6 °F 49.3 °F 79% 29.85 in 10.0 mi NNE 4.6 mph - N/A   Clear
11:35 PM 53.8 °F 49.3 °F 85% 29.85 in 10.0 mi North 4.6 mph - N/A   Clear
11:55 PM 52.3 °F 49.1 °F 89% 29.85 in 3.5 mi North 4.6 mph - N/A   Clear